Вернуться в каталог

COSMOS 2325

GLONASS

АктивенНавигацияMEO
NORAD 23734·PAYLOAD·🇷🇺 Russia

Запущен Dec 14, 1995 с Baikonur Cosmodrome

Loading…

Ближайшие Пролёты (ближайшие 24 часа)

TLE

СвежийSource: Space-Track

Эпоха: Sep 13, 2026, 12:13 UTC

1 23734U 95068A   26256.50935167  .00000018  00000-0  00000-0 0  9993
2 23734  65.4751 199.9292 0022143 219.7115 279.0257  2.13102577239271

Отслеживайте COSMOS 2325 в реальном времени с AllMySat

Download on the App Store